Main page
METAR-TAF:

METAR-TAF

Airports :

Bob Sikes Airport

Crestview, Florida, United States

latitude: 30-46-20N, longitude: 086-31-12W, elevation: 213 ft

Current weather observation

The report was made 52 minutes ago, at 04:53 UTC
Wind 6 mph from the East/Southeast
Temperature 75°F
Humidity 74%
Pressure 29.94 in. Hg
Visibility: 10 miles
Overcast at a height of 6000 ft

METAR: KCEW 240453Z AUTO 12005KT 10SM OVC060 24/19 A2994 RMK AO2 SLP133 T02390194

Time: 00:45 (05:45 UTC)


TAF: missing

Weather observations and forecasts of more than 4000 airports (METAR and TAF reports).

The available stations are represented by yellow and red dots on the map.

Hover mouse over dot to see the name of the station.

Then click to see weather observations and forecasts.

To change the map : click on the green buttons with a black cross to zoom in, on the green button with a dash to zoom out, or on the green arrows for adjacent maps.


METAR-TAF: